Location: Unspecified
(49.2170°N, 0.0000°E)
Time: 18:09:20
(UTC+00:00)

A-11 Canister half - Pass Details

Date: 26 January 2021
Orbit: 1516 x 1684 km, 47.2° (Epoch: 05 March)

Event Time Altitude Azimuth Distance (km) Brightness Sun altitude
Rises 22:17:11 0° 263° (W) 4,721 11.9 -51.5°
Reaches altitude 10° 22:20:16 10° 263° (W) 3,720 11.2 -51.8°
Enters shadow 22:22:11 18° 262° (W) 3,113 10.7 -52.1°
